Terminal Aerodrome Forecast
Issued by NWS Tampa Bay Area, FL

Home | Current Version | Previous Version | Text Only | Print | Product List | Glossary On
Versions: 1 2 3 4 5 6 7 8 9 10 11 12 13 14 15 16 17 18 19 20 21 22 23 24 25 26 27 28 29
000
FTUS42 KTBW 271456 AAA
TAFTPA
TAF AMD
KTPA 271456Z 2715/2812 11006KT P6SM SCT030 SCT070 BKN200
     FM272100 33009G15KT P6SM FEW050 SCT250
     FM280200 07007KT P6SM SCT250
     FM280600 VRB04KT P6SM SCT250=

USA.gov is the U.S. government's official web portal to all federal, state and local government web resources and services.